TimeEDT,TemperatureF,Dew PointF,Humidity,Sea Level PressureIn,VisibilityMPH,Wind Direction,Wind SpeedMPH,Gust SpeedMPH,PrecipitationIn,Events,Conditions,WindDirDegrees,DateUTC
12:51 AM,57.9,36.0,44,30.12,10.0,ESE,11.5,-,N/A,,Partly Cloudy,120,2013-04-28 04:51:00
1:51 AM,57.0,37.0,47,30.12,10.0,SE,10.4,-,N/A,,Scattered Clouds,130,2013-04-28 05:51:00
2:51 AM,55.0,37.0,51,30.10,10.0,SE,6.9,-,N/A,,Mostly Cloudy,130,2013-04-28 06:51:00
3:51 AM,52.0,37.0,57,30.09,10.0,ESE,9.2,-,N/A,,Mostly Cloudy,120,2013-04-28 07:51:00
4:51 AM,51.1,37.9,61,30.09,10.0,ESE,9.2,-,N/A,,Mostly Cloudy,110,2013-04-28 08:51:00
5:51 AM,51.1,39.0,63,30.09,10.0,ESE,8.1,-,N/A,,Scattered Clouds,110,2013-04-28 09:51:00
6:51 AM,52.0,39.9,63,30.07,10.0,ESE,10.4,-,N/A,,Overcast,110,2013-04-28 10:51:00
7:51 AM,55.0,39.9,57,30.06,10.0,ESE,11.5,-,N/A,,Overcast,120,2013-04-28 11:51:00
8:51 AM,57.0,41.0,55,30.06,10.0,ESE,11.5,-,N/A,,Overcast,120,2013-04-28 12:51:00
9:51 AM,57.9,42.1,56,30.06,10.0,SE,11.5,-,0.00,Rain,Light Rain,130,2013-04-28 13:51:00
10:51 AM,55.9,45.0,67,30.06,6.0,SSE,10.4,23.0,0.00,Rain,Light Rain,150,2013-04-28 14:51:00
11:51 AM,54.0,48.0,80,30.05,8.0,SE,9.2,-,0.02,Rain,Light Rain,130,2013-04-28 15:51:00
12:51 PM,53.1,50.0,89,30.03,6.0,SE,12.7,19.6,0.03,Rain,Light Rain,140,2013-04-28 16:51:00
1:07 PM,53.6,50.0,88,30.03,6.0,SE,15.0,-,0.00,Rain,Light Rain,130,2013-04-28 17:07:00
1:12 PM,53.6,51.8,94,30.02,1.5,SE,9.2,19.6,0.01,Rain,Rain,130,2013-04-28 17:12:00
1:44 PM,53.6,51.8,94,30.01,2.0,SE,10.4,-,0.04,Rain,Light Rain,130,2013-04-28 17:44:00
1:51 PM,54.0,51.1,90,30.01,2.0,SE,11.5,-,0.05,Rain,Light Rain,140,2013-04-28 17:51:00
2:37 PM,53.6,51.8,94,30.00,5.0,SE,10.4,18.4,0.01,Rain,Light Rain,140,2013-04-28 18:37:00
2:51 PM,54.0,51.1,90,29.99,1.5,SE,11.5,-,0.02,Rain,Light Rain,140,2013-04-28 18:51:00
3:51 PM,54.0,52.0,93,29.98,1.5,SE,10.4,-,0.03,Rain,Light Rain,130,2013-04-28 19:51:00
4:24 PM,53.6,51.8,94,29.97,3.0,SE,10.4,-,0.01,,Overcast,130,2013-04-28 20:24:00
4:36 PM,53.6,51.8,94,29.96,1.5,SE,9.2,-,0.02,Rain,Light Rain,140,2013-04-28 20:36:00
4:51 PM,54.0,52.0,93,29.96,2.0,SE,11.5,17.3,0.03,Rain,Light Rain,130,2013-04-28 20:51:00
5:21 PM,55.4,53.6,94,29.94,6.0,SE,12.7,-,0.01,,Overcast,130,2013-04-28 21:21:00
5:51 PM,54.0,52.0,93,29.94,10.0,SE,11.5,-,0.01,,Overcast,130,2013-04-28 21:51:00
6:51 PM,54.0,52.0,93,29.94,6.0,SE,10.4,-,0.00,Rain,Light Rain,130,2013-04-28 22:51:00
6:59 PM,53.6,51.8,94,29.93,2.0,SE,8.1,-,0.01,Rain,Light Rain,130,2013-04-28 22:59:00
7:29 PM,53.6,51.8,94,29.93,2.0,SE,9.2,-,0.06,Rain,Rain,130,2013-04-28 23:29:00
7:49 PM,53.6,51.8,94,29.93,6.0,SE,6.9,-,0.08,Rain,Light Rain,130,2013-04-28 23:49:00
7:51 PM,54.0,52.0,93,29.94,4.0,SE,5.8,-,0.08,Rain,Light Rain,130,2013-04-28 23:51:00
8:51 PM,53.1,52.0,96,29.95,6.0,SE,9.2,-,0.07,Rain,Light Rain,130,2013-04-29 00:51:00
9:51 PM,53.1,51.1,93,29.95,10.0,SE,10.4,-,0.01,,Overcast,130,2013-04-29 01:51:00
10:51 PM,53.1,51.1,93,29.95,9.0,SE,12.7,-,N/A,,Overcast,130,2013-04-29 02:51:00
11:51 PM,52.0,50.0,93,29.94,10.0,SE,12.7,-,N/A,,Mostly Cloudy,140,2013-04-29 03:51:00